Location: Battersea Observatory
(44.4318°N, 76.3841°W)
Time: 21:38:41
(UTC-05:00)

Transit 2A - All Passes

Search period start: 22 January 2022 00:00
Search period end: 01 February 2022 00:00
Orbit: 591 x 967 km, 66.7° (Epoch: 22 January)

Date Brightness Start Highest point End Pass type
(mag) Time Alt. Az. Time Alt. Az. Time Alt. Az.
22 Jan - 11:19:03 10° S 11:24:35 37° ESE 11:30:22 10° NE daylight
22 Jan - 13:01:47 10° WSW 13:07:45 47° NW 13:13:56 10° NNE daylight
22 Jan - 14:49:08 10° WNW 14:52:40 15° NNW 14:56:14 10° N daylight
22 Jan - 18:22:05 10° N 18:25:17 14° NNE 18:28:24 10° ENE visible
22 Jan - 20:04:21 10° NNW 20:10:16 45° NE 20:15:41 10° ESE visible
22 Jan - 21:47:59 10° NW 21:53:22 35° WSW 21:58:19 10° S visible
23 Jan - 10:45:34 10° SSE 10:50:34 27° ESE 10:55:44 10° NE daylight
23 Jan - 12:27:15 10° SW 12:33:22 62° NW 12:39:45 10° NNE daylight
23 Jan - 14:13:44 10° WNW 14:17:58 18° NNW 14:22:15 10° N daylight
23 Jan - 17:48:15 10° N 17:50:31 12° NNE 17:52:46 10° NE visible
23 Jan - 19:30:13 10° NNW 19:35:49 34° NE 19:41:00 10° ESE visible
23 Jan - 21:13:29 10° NW 21:19:18 49° WSW 21:24:35 10° S visible
24 Jan - 10:12:27 10° SE 10:16:35 19° ESE 10:20:50 10° ENE daylight
24 Jan - 11:52:53 10° SW 11:59:04 82° WNW 12:05:32 10° NNE daylight
24 Jan - 13:38:30 10° W 13:43:20 22° NW 13:48:13 10° NNE daylight
24 Jan - 17:14:46 10° N 17:15:42 10° NNE 17:16:38 10° NNE daylight
24 Jan - 18:56:07 10° NNW 19:01:18 27° NE 19:06:08 10° E visible
24 Jan - 20:39:06 10° NW 20:45:10 69° WSW 20:50:38 10° SSE visible
24 Jan - 22:26:46 10° W 22:27:06 10° W 22:27:25 10° W visible
25 Jan - 09:40:02 10° SE 09:42:41 13° E 09:45:21 10° ENE daylight
25 Jan - 11:18:42 10° SSW 11:24:49 75° ESE 11:31:15 10° NE daylight
25 Jan - 13:03:27 10° W 13:08:45 28° NW 13:14:09 10° NNE daylight
25 Jan - 14:53:00 10° NNW 14:54:20 11° NNW 14:55:40 10° N daylight
25 Jan - 18:22:03 10° NNW 18:26:43 21° NE 18:31:07 10° E visible
25 Jan - 20:04:48 10° NNW 20:10:57 86° ENE 20:16:29 10° SSE visible
25 Jan - 21:49:55 10° WNW 21:53:13 16° WSW 21:56:23 10° SW visible
26 Jan - 10:44:41 10° S 10:50:39 55° ESE 10:56:53 10° NE daylight
26 Jan - 12:28:33 10° WSW 12:34:14 35° NW 12:40:03 10° NNE daylight
26 Jan - 14:17:00 10° NW 14:19:31 12° NNW 14:22:02 10° N daylight
26 Jan - 17:48:03 10° N 17:52:04 17° NNE 17:55:55 10° ENE visible
26 Jan - 19:30:34 10° NNW 19:36:39 63° NE 19:42:09 10° SE visible
26 Jan - 21:14:49 10° NW 21:19:18 23° WSW 21:23:28 10° SSW visible
27 Jan - 10:10:54 10° S 10:16:33 39° ESE 10:22:26 10° NE daylight
27 Jan - 11:53:50 10° WSW 11:59:47 45° NW 12:05:55 10° NNE daylight
27 Jan - 13:41:21 10° WNW 13:44:46 15° NNW 13:48:09 10° N daylight
27 Jan - 17:14:04 10° N 17:17:21 14° NNE 17:20:32 10° ENE daylight
27 Jan - 18:56:22 10° NNW 19:02:17 47° NE 19:07:39 10° ESE visible
27 Jan - 20:40:05 10° NW 20:45:18 32° WSW 20:50:06 10° S visible
28 Jan - 09:37:22 10° SSE 09:42:30 29° ESE 09:47:50 10° NE daylight
28 Jan - 11:19:15 10° SW 11:25:24 59° NW 11:31:45 10° NNE daylight
28 Jan - 13:05:55 10° WNW 13:10:03 18° NNW 13:14:11 10° N daylight
28 Jan - 16:40:14 10° N 16:42:36 12° NNE 16:44:55 10° NE daylight
28 Jan - 18:22:14 10° NNW 18:27:50 36° NE 18:33:00 10° ESE visible
28 Jan - 20:05:33 10° NW 20:11:15 46° WSW 20:16:25 10° S visible
29 Jan - 09:04:09 10° SSE 09:08:31 20° ESE 09:12:59 10° ENE daylight
29 Jan - 10:44:51 10° SW 10:51:05 78° WNW 10:57:32 10° NNE daylight
29 Jan - 12:30:39 10° W 12:35:24 21° NW 12:40:10 10° NNE daylight
29 Jan - 16:06:42 10° N 16:07:47 10° NNE 16:08:53 10° NNE daylight
29 Jan - 17:48:07 10° NNW 17:53:20 28° NE 17:58:11 10° E visible
29 Jan - 19:31:08 10° NW 19:37:07 65° WSW 19:42:30 10° SSE visible
30 Jan - 08:31:32 10° SE 08:34:36 14° E 08:37:41 10° ENE daylight
30 Jan - 10:10:38 10° SSW 10:16:50 79° ESE 10:23:15 10° NE daylight
30 Jan - 11:55:34 10° W 12:00:48 27° NW 12:06:07 10° NNE daylight
30 Jan - 13:45:29 10° NNW 13:46:25 10° NNW 13:47:22 10° N daylight
30 Jan - 17:14:03 10° NNW 17:18:45 22° NE 17:23:11 10° E daylight
30 Jan - 18:56:50 10° NNW 19:02:55 89° W 19:08:23 10° SSE visible
30 Jan - 20:42:11 10° WNW 20:45:07 14° W 20:47:55 10° SW visible
31 Jan - 09:36:36 10° SSW 09:42:38 58° ESE 09:48:54 10° NE daylight
31 Jan - 11:20:38 10° WSW 11:26:17 33° NW 11:32:01 10° NNE daylight
31 Jan - 13:09:18 10° NW 13:11:37 12° NNW 13:13:55 10° N daylight
31 Jan - 16:40:02 10° N 16:44:07 18° NNE 16:48:00 10° ENE daylight
31 Jan - 18:22:35 10° NNW 18:28:38 67° NE 18:34:05 10° SE visible
31 Jan - 20:06:58 10° WNW 20:11:12 21° WSW 20:15:09 10° SSW visible
